EW9652 Weather Reports


Display with metric or nautical units.
time (UTC)temp
F
wind
direction
speed
MPH
gust
MPH
rain 1hr
in
rain 24hr
in
rain mn
in
humidity
%
barometer
mb
20260505003556 81 246 13.0 26.0 0.00 0.00 0.00 11 1002.0
20260505003054 81 297 12.0 26.0 0.00 0.00 0.00 11 1001.9
20260505002552 82 203 12.0 25.0 0.00 0.00 0.00 11 1001.9
20260505002052 82 259 13.0 25.0 0.00 0.00 0.00 12 1002.1
20260505001823 82 250 14.0 25.0 0.00 0.00 0.00 12 1002.1
20260505001050 82 269 15.0 24.0 0.00 0.00 0.00 11 1002.2
20260505000550 82 188 15.0 26.0 0.00 0.00 0.00 11 1002.2
20260505000050 82 257 14.0 26.0 0.00 0.00 0.00 11 1002.1
20260504235819 82 252 14.0 24.0 0.00 0.00 0.00 10 1002.1
20260504235047 82 274 15.0 25.0 0.00 0.00 0.00 11 1002.1
20260504234546 82 281 15.0 25.0 0.00 0.00 0.00 11 1002.0
20260504234046 83 226 14.0 22.0 0.00 0.00 0.00 11 1002.1
20260504233546 83 259 14.0 23.0 0.00 0.00 0.00 11 1002.0
20260504233043 83 215 13.0 26.0 0.00 0.00 0.00 11 1002.1
20260504232544 83 232 14.0 26.0 0.00 0.00 0.00 11 1002.1
20260504232044 83 249 14.0 23.0 0.00 0.00 0.00 11 1002.1
20260504231542 83 293 14.0 24.0 0.00 0.00 0.00 10 1002.0
20260504231042 83 248 14.0 26.0 0.00 0.00 0.00 11 1002.0
20260504230542 84 258 12.0 26.0 0.00 0.00 0.00 10 1002.0
20260504230041 84 253 14.0 25.0 0.00 0.00 0.00 10 1001.9
20260504225539 84 250 17.0 32.0 0.00 0.00 0.00 10 1001.9
20260504225040 84 261 16.0 32.0 0.00 0.00 0.00 10 1001.8
20260504224537 84 238 15.0 25.0 0.00 0.00 0.00 10 1001.9
20260504224037 85 250 13.0 24.0 0.00 0.00 0.00 11 1001.8
20260504223537 85 324 12.0 22.0 0.00 0.00 0.00 13 1001.7
20260504223036 84 229 13.0 21.0 0.00 0.00 0.00 15 1001.8
20260504222535 85 219 14.0 27.0 0.00 0.00 0.00 17 1001.9
20260504222036 85 262 14.0 27.0 0.00 0.00 0.00 13 1002.0
20260504221533 85 280 12.0 26.0 0.00 0.00 0.00 14 1002.2
20260504221034 85 0 11.0 18.0 0.00 0.00 0.00 17 1002.3
20260504220532 84 248 11.0 19.0 0.00 0.00 0.00 16 1002.2
20260504220031 85 286 10.0 19.0 0.00 0.00 0.00 16 1002.3
20260504215532 84 285 9.0 17.0 0.00 0.00 0.00 18 1002.5
20260504215030 84 271 10.0 22.0 0.00 0.00 0.00 19 1002.5
20260504214530 84 223 13.0 22.0 0.00 0.00 0.00 18 1002.6
20260504214029 84 261 13.0 22.0 0.00 0.00 0.00 18 1002.8
20260504213800 84 229 12.0 22.0 0.00 0.00 0.00 19 1002.9
20260504213029 84 262 10.0 21.0 0.00 0.00 0.00 20 1003.1
20260504212529 84 233 9.0 18.0 0.00 0.00 0.00 19 1003.1
20260504212030 84 246 9.0 18.0 0.00 0.00 0.00 19 1003.3
20260504211529 84 0 10.0 21.0 0.00 0.00 0.00 18 1003.3
20260504211030 84 223 10.0 21.0 0.00 0.00 0.00 17 1003.5
20260504210529 85 311 9.0 17.0 0.00 0.00 0.00 18 1003.5
20260504210029 84 278 9.0 17.0 0.00 0.00 0.00 18 1003.7
20260504205738 84 0 10.0 20.0 0.00 0.00 0.00 17 1003.6
20260504205009 84 227 9.0 20.0 0.00 0.00 0.00 17 1003.7
20260504204506 85 266 9.0 20.0 0.00 0.00 0.00 16 1003.7
20260504204235 85 234 10.0 20.0 0.00 0.00 0.00 15 1003.9
20260504203504 85 274 10.0 19.0 0.00 0.00 0.00 15 1003.9
20260504203000 84 246 10.0 19.0 0.00 0.00 0.00 17 1003.9
20260504202730 85 235 12.0 23.0 0.00 0.00 0.00 17 1003.9
20260504201958 85 252 14.0 25.0 0.00 0.00 0.00 16 1004.1
20260504201457 84 269 13.0 25.0 0.00 0.00 0.00 17 1004.1
20260504200957 84 243 10.0 22.0 0.00 0.00 0.00 17 1004.1
20260504200458 84 272 9.0 19.0 0.00 0.00 0.00 17 1004.3
20260504200227 85 0 9.0 19.0 0.00 0.00 0.00 18 1004.1
20260504195455 85 252 8.0 19.0 0.00 0.00 0.00 18 1004.3
20260504195227 84 242 8.0 19.0 0.00 0.00 0.00 19 1004.5
20260504194726 85 233 8.0 16.0 0.00 0.00 0.00 20 1004.6
20260504193956 85 235 9.0 18.0 0.00 0.00 0.00 19 1004.7
20260504193455 84 231 8.0 18.0 0.00 0.00 0.00 21 1004.7
20260504192955 83 0 7.0 17.0 0.00 0.00 0.00 20 1004.9
20260504192455 83 243 8.0 18.0 0.00 0.00 0.00 21 1004.9
20260504191955 83 263 8.0 18.0 0.00 0.00 0.00 21 1005.1
20260504191456 83 287 9.0 18.0 0.00 0.00 0.00 21 1005.0
20260504190949 83 259 9.0 18.0 0.00 0.00 0.00 20 1005.2
20260504190449 82 262 10.0 17.0 0.00 0.00 0.00 23 1005.1
20260504185949 83 240 10.0 17.0 0.00 0.00 0.00 23 1005.2
20260504185447 83 240 10.0 17.0 0.00 0.00 0.00 23 1005.3
20260504184948 82 214 9.0 17.0 0.00 0.00 0.00 24 1005.4
20260504184445 83 229 8.0 17.0 0.00 0.00 0.00 24 1005.6
20260504183945 82 113 8.0 17.0 0.00 0.00 0.00 24 1005.6
20260504183445 82 247 8.0 17.0 0.00 0.00 0.00 24 1005.7
20260504183216 82 275 7.0 16.0 0.00 0.00 0.00 24 1005.7
20260504182445 82 262 8.0 16.0 0.00 0.00 0.00 25 1005.8
20260504181943 82 271 9.0 17.0 0.00 0.00 0.00 25 1006.2
20260504181441 82 266 9.0 18.0 0.00 0.00 0.00 26 1006.2
20260504181213 81 257 8.0 18.0 0.00 0.00 0.00 26 1006.3
20260504180712 82 307 8.0 15.0 0.00 0.00 0.00 25 1006.4
20260504175941 82 281 9.0 18.0 0.00 0.00 0.00 26 1006.6
20260504175443 81 304 10.0 18.0 0.00 0.00 0.00 25 1006.7
20260504175210 81 252 9.0 17.0 0.00 0.00 0.00 26 1006.7
20260504174439 81 306 9.0 17.0 0.00 0.00 0.00 26 1006.9
20260504173937 81 0 10.0 19.0 0.00 0.00 0.00 26 1006.9
20260504173708 80 275 12.0 21.0 0.00 0.00 0.00 26 1007.0
20260504172935 80 265 12.0 21.0 0.00 0.00 0.00 26 1007.1
20260504172707 80 299 13.0 21.0 0.00 0.00 0.00 27 1007.2
20260504171933 80 275 14.0 26.0 0.00 0.00 0.00 26 1007.2
20260504171432 80 255 13.0 26.0 0.00 0.00 0.00 26 1007.4
20260504170933 80 281 12.0 21.0 0.00 0.00 0.00 27 1007.3
20260504170702 80 314 12.0 19.0 0.00 0.00 0.00 27 1007.4
20260504170202 80 249 10.0 19.0 0.00 0.00 0.00 27 1007.4
20260504160423 74 243 8.0 15.0 0.00 0.00 0.00 37 1008.2
20260504150918 70 263 8.0 15.0 0.00 0.00 0.00 44 1008.7
20260504150417 69 277 9.0 14.0 0.00 0.00 0.00 46 1008.8
20260504140910 65 265 9.0 15.0 0.00 0.00 0.00 52 1008.7
20260504140410 64 251 9.0 15.0 0.00 0.00 0.00 53 1008.8
20260504130356 61 250 9.0 16.0 0.00 0.00 0.00 57 1008.4
20260504130128 61 245 9.0 14.0 0.00 0.00 0.00 58 1008.3
20260504110342 60 243 6.0 11.0 0.00 0.00 0.00 57 1008.0
20260504100603 61 243 11.0 20.0 0.00 0.00 0.00 56 1008.4
20260504081818 60 221 10.0 18.0 0.00 0.00 0.00 57 1009.4
20260504081549 60 259 10.0 18.0 0.00 0.00 0.00 57 1009.4
20260504080816 60 219 10.0 16.0 0.00 0.00 0.00 57 1009.5
20260504080317 60 250 10.0 19.0 0.00 0.00 0.00 56 1009.5
20260504070308 62 224 10.0 18.0 0.00 0.00 0.00 53 1010.3
20260504050752 64 224 10.0 24.0 0.00 0.00 0.00 43 1011.1
20260504050522 65 214 10.0 24.0 0.00 0.00 0.00 43 1011.3
20260504045752 65 190 11.0 17.0 0.00 0.00 0.00 43 1011.3
20260504045252 65 220 11.0 17.0 0.00 0.00 0.00 43 1011.4
20260504045023 65 215 11.0 19.0 0.00 0.00 0.00 42 1011.5
20260504044253 65 264 11.0 19.0 0.00 0.00 0.00 43 1011.5
20260504043749 65 212 11.0 18.0 0.00 0.00 0.00 43 1011.6
20260504043248 65 172 10.0 17.0 0.00 0.00 0.00 42 1011.6
20260504042746 65 210 9.0 15.0 0.00 0.00 0.00 41 1011.6
20260504042246 65 229 10.0 15.0 0.00 0.00 0.00 41 1011.6
20260504042017 65 240 9.0 15.0 0.00 0.00 0.00 41 1011.6
20260504041247 65 213 10.0 15.0 0.00 0.00 0.00 39 1011.7
20260504041016 65 226 10.0 16.0 0.00 0.00 0.00 39 1011.7
20260504040517 65 234 10.0 17.0 0.00 0.00 0.00 39 1011.7
20260504035746 65 228 11.0 20.0 0.00 0.00 0.00 39 1011.7
20260504035245 65 222 11.0 20.0 0.00 0.00 0.00 37 1011.7
20260504034745 65 213 10.0 17.0 0.00 0.00 0.00 38 1011.7
20260504034511 65 207 9.0 14.0 0.00 0.00 0.00 37 1011.7
20260504033737 65 202 9.0 14.0 0.00 0.00 0.00 36 1011.7
20260504033508 66 217 9.0 13.0 0.00 0.00 0.00 35 1011.6
20260504032733 66 208 8.0 13.0 0.00 0.00 0.00 35 1011.6
20260504032232 66 219 8.0 14.0 0.00 0.00 0.00 35 1011.6
20260504031730 66 212 9.0 14.0 0.00 0.00 0.00 35 1011.5
20260504031232 67 218 8.0 12.0 0.00 0.00 0.00 35 1011.5
20260504030959 67 233 7.0 12.0 0.00 0.00 0.00 36 1011.5
20260504030228 67 211 6.0 10.0 0.00 0.00 0.00 36 1011.5
20260504025957 66 228 5.0 9.0 0.00 0.00 0.00 35 1011.5
20260504025457 67 227 7.0 13.0 0.00 0.00 0.00 34 1011.4
20260504024726 67 212 8.0 13.0 0.00 0.00 0.00 34 1011.4
20260504024224 67 226 8.0 11.0 0.00 0.00 0.00 32 1011.3
20260504023724 67 212 7.0 11.0 0.00 0.00 0.00 31 1011.4
20260504023222 68 197 7.0 13.0 0.00 0.00 0.00 31 1011.3
20260504022951 69 214 8.0 13.0 0.00 0.00 0.00 30 1011.2
20260504022220 69 209 8.0 12.0 0.00 0.00 0.00 30 1011.2
20260504021720 69 208 7.0 12.0 0.00 0.00 0.00 30 1011.1
20260504021219 70 181 7.0 12.0 0.00 0.00 0.00 30 1011.1
20260504020720 70 214 7.0 12.0 0.00 0.00 0.00 31 1011.0
20260504020218 70 195 8.0 12.0 0.00 0.00 0.00 30 1011.0
20260504015718 71 195 9.0 16.0 0.00 0.00 0.00 30 1011.1
20260504015218 71 198 9.0 16.0 0.00 0.00 0.00 29 1011.0
20260504014717 72 212 8.0 16.0 0.00 0.00 0.00 30 1010.9
20260504014218 72 216 7.0 16.0 0.00 0.00 0.00 30 1010.9
20260504013718 73 200 6.0 11.0 0.00 0.00 0.00 30 1011.0
20260504013217 73 211 7.0 13.0 0.00 0.00 0.00 28 1011.0
20260504012946 73 264 8.0 13.0 0.00 0.00 0.00 27 1011.0
20260504012212 73 224 9.0 17.0 0.00 0.00 0.00 26 1011.0
20260504011712 74 204 11.0 21.0 0.00 0.00 0.00 27 1010.9
20260504011212 74 243 11.0 21.0 0.00 0.00 0.00 26 1011.0
20260504010711 74 230 11.0 19.0 0.00 0.00 0.00 26 1011.0
20260504010215 75 221 10.0 19.0 0.00 0.00 0.00 25 1011.1
20260504010210 74 253 11.0 19.0 0.00 0.00 0.00 25 1011.1
20260504005207 75 250 11.0 20.0 0.00 0.00 0.00 25 1011.2
20260504004708 75 162 10.0 20.0 0.00 0.00 0.00 28 1011.2
20260504004206 75 186 10.0 19.0 0.00 0.00 0.00 25 1011.3